Regional Weather Roundup
Issued by NWS

Home | Current Version | Previous Version | Text Only | Print | Product List | Glossary On
Versions: 1 2 3 4 5 6 7 8 9 10 11 12 13 14 15 16 17 18 19 20 21 22 23 24 25 26 27 28 29 30 31 32 33 34 35 36 37 38 39 40 41 42 43 44 45 46 47 48 49 50
918
ASHW40 PHFO 211212
RWRHI

WEATHER ROUNDUP FOR HAWAII
NATIONAL WEATHER SERVICE HONOLULU HI
200 AM HST MON AUG 21 2017

THIS IS AN AUTOMATED REPORT THAT HAS NOT BEEN QUALITY CONTROLLED.

NOTE..."FAIR" INDICATES FEW OR NO CLOUDS BELOW 12,000 FEET WITH NO
SIGNIFICANT WEATHER AND/OR OBSTRUCTIONS TO VISIBILITY.

* - THESE SITES REPORT LIMITED FIELDS
# - BUOY DATA PROVIDED BY PACIFIC ISLANDS OCEAN OBSERVING SYSTEM.

HIZ001>004-211300-
KAUAI-NIIHAU-

CITY           SKY/WX    TMP DP  RH WIND       PRES   REMARKS
LIHUE APT      PTCLDY    80  75  84 E8        30.02S
PORT ALLEN*      N/A     79 N/A N/A E14         N/A
POIPU*           N/A     79 N/A N/A NE6G14      N/A
PRINCEVILLE*     N/A     75 N/A N/A SE3         N/A
KOKOLE POINT*  NOT AVBL
MOLOAA DAIRY*    N/A     75  73  94 SE3         N/A
WAIMEA HTS*    NOT AVBL
PUU OPAE*      NOT AVBL
PUU LUA*       NOT AVBL
MAKAHA RIDGE*  NOT AVBL
$$

HIZ005>011-211300-
OAHU-

CITY           SKY/WX    TMP DP  RH WIND       PRES   REMARKS
HONOLULU       PTCLDY    75  71  87 E9        29.98F
KALAELOA       PTCLDY    75  69  81 CALM      30.00F
KANEOHE MCB    NOT AVBL
WHEELER FIELD  MOCLDY    77  71  81 CALM      30.00F
BELLOWS*       NOT AVBL
KAHUKU*        NOT AVBL
WHEELER*       NOT AVBL
WAIANAE HARBOR NOT AVBL
DILLINGHAM*      N/A     88  82  84 NW1         N/A  HX 108
KAHUKU TRN*      N/A     75  73  94 W7G17       N/A
KAWAILOA*        N/A     73  70  88 E6G13       N/A
KII*             N/A     79  75  89 E15G21      N/A
MAKUA RANGE*     N/A     77  70  78 NW3         N/A
OAHU FOREST NW NOT AVBL
SCHOFIELD BRK*   N/A     75  72  88 NE1         N/A
SCHOFIELD S*   NOT AVBL
WAIANAE VLY*   NOT AVBL
KUAOKALA*      NOT AVBL
HONOULIUULI*   NOT AVBL
MOKUOLOE IS*   NOT AVBL
PALEHUA*       NOT AVBL
WAIAWA PHB*    NOT AVBL
$$

HIZ012>013-211300-
MOLOKAI-

CITY           SKY/WX    TMP DP  RH WIND       PRES   REMARKS
MOLOKAI AIRPT  PTCLDY    77  73  87 NE5       30.00F
KALAUPAPA      NOT AVBL
MAKAPULAPAI*   NOT AVBL
MOLOKAI 1*     NOT AVBL
PUU ALII*      NOT AVBL
$$

HIZ016-211300-
KAHOOLAWE-

CITY           SKY/WX    TMP DP  RH WIND       PRES   REMARKS
KAHOOLAWE*     NOT AVBL
HAKIOAWA*      NOT AVBL
HONOKANAIA*      N/A     82  70  67 NE12G22   29.92F
KANELOA*         N/A     75  72  88 NE12G22   30.06S
KEALIALALO*    NOT AVBL
LUA MAKIKA*    NOT AVBL
$$

HIZ014>015-211300-
LANAI-

CITY           SKY/WX    TMP DP  RH WIND       PRES   REMARKS
LANAI CITY     FAIR      73  71  93 N7        30.05F
LANAI 1*       NOT AVBL
$$

HIZ017>028-211300-
MAUI-

CITY           SKY/WX    TMP DP  RH WIND       PRES   REMARKS
KAHULUI        MOCLDY    78  73  84 NE9       29.98S
KAPALUA-W MAUI NOT AVBL
HANA AIRPORT     N/A     75  73  94 S2        30.02F
HANA*          NOT AVBL
HALEAKALA SUMM NOT AVBL
MAALAEA BAY*   NOT AVBL
HALEAKALA*     NOT AVBL
KAUPO GAP*     NOT AVBL
KULA 1*          N/A     57  41  55 E5          N/A
$$

HIZ023>026-211300-
BIG ISLAND OF HAWAII COAST AND LOWER SLOPES-

CITY           SKY/WX    TMP DP  RH WIND       PRES   REMARKS
KAILUA KONA    CLEAR     79  69  71 E9        29.94F
HILO           CLOUDY    72  67  84 SW7       29.99F
HONOKAA*         N/A     70 N/A N/A VRB1        N/A
KAWAIHAE MWT*    N/A     81 N/A N/A NE2         N/A
KAWAIHAE*      NOT AVBL
SOUTH POINT*     N/A     72 N/A N/A N12         N/A
UPOLU AIRPORT* NOT AVBL
KAMUELA*         N/A     66  64  94 NE16      30.08S
HAKALAU*         N/A     48  46  93 SW3         N/A
KALOKO-HONOKO* NOT AVBL
PALI 2*          N/A     84  79  84 S13G18      N/A  HX  96
KEALAKOMO*       N/A     79  70  73 NE9         N/A
KAUPULEHU*     NOT AVBL
KAPAPALA*        N/A     64  64 100 NW6         N/A
LOWER KAHUKU*  NOT AVBL
PUHE CS*       NOT AVBL
PUHO CS*       NOT AVBL
PTA KEAMUKU*     N/A     61  55  82 SE3G10      N/A
WAIKOLOA*      NOT AVBL
$$

HIZ027>028-211300-
BIG ISLAND OF HAWAII INTERIOR AND SUMMMITS-

CITY           SKY/WX    TMP DP  RH WIND       PRES   REMARKS
BRADSHAW FIELD CLEAR     54  48  81 SE3       30.34F
MK VISITOR CEN   N/A     48  39  71 NW3         N/A
MAUNA KEA*       N/A     34  28  80 CALM        N/A
MAUNA LOA*     NOT AVBL
MAUNA LOA 1*   NOT AVBL
PTA KIPUKA*      N/A     70  68  94 N6          N/A
PTA RANGE 17*    N/A     57  52  82 W6G12       N/A
PTA WEST*        N/A     61  54  77 SE7G18      N/A
NENE CABIN*    NOT AVBL
AHUMOA*        NOT AVBL
PTA PORTABLE*  NOT AVBL
PUU MALI*        N/A     57  48  72 S7          N/A
$$

HIC003-211300-
NORTHWEST ISLANDS-

CITY           SKY/WX    TMP DP  RH WIND       PRES   REMARKS
MIDWAY ISLAND  PTCLDY    79  75  89 E16       30.20F
MIDWAY NOS*    NOT AVBL
FRENCH FRIGATE NOT AVBL
$$

PHZ110>124-180-211300-
BUOY REPORTS

STATION/POSITION TIME  TEMP    WIND        PRES    WAVE   SWELL
                       AIR SEA DIR/SP/G            HT/PER HT/DIR
                 (UTC) (F)     (DEG/KT/KT) (MB)    (FT/S) (FT/D)
BUOY 51001       1150   80 81   80/ 14/ 17 1017.2F   5/ 6   2/ 90
BUOY 51101       1150   80 82   70/ 14/ 17 1017.6F   5/ 6   3/160
BUOY 51100       NOT AVBL
BUOY 51002       1150   80 81   70/ 14/ 16 1013.0F   5/ 7   3/ 90
BUOY 51003       1150   80 82   40/ 12/ 14 1014.5F   4/ 8   3/ 90
BUOY 51004       1150      80   60/ 14/ 17 1013.2F   5/ 8   3/ 80
WAIMEA BAY#      1102      79                N/A     3/ 5
MOKAPU POINT#    1134      80                N/A     4/ 5   2/ 90
LANAI#           NOT AVBL
BARBERS PT 2#    NOT AVBL
PAUWELA#         1139      80                N/A     4/ 8   2/ 80
HILO#            1157      81                N/A     5/ 8   2/110
KANEOHE BAY#     NOT AVBL
KANEOHE BAY 2#   NOT AVBL
HANALEI#         1152      81                N/A     4/ 6
KAHULUI HARBOR   1142   78 82   60/ 10/ 16 1015.2F
HONOLULU HARBOR  1142   80 81   CALM  /  2 1016.3F
PEARL HARBOR#    1130      81                N/A     2/ 7   2/150
KILO NALU        NOT AVBL
HILO HARBOR      1142   72 80  210/  4/  5 1015.3F
MOKUOLOE         1136   79 82   70/  6/  9 1016.1F
NAWILIWILI       1148   80      60/  6/  8 1015.9F
WHOTS BUOY       NOT AVBL
BUOY 51028       NOT AVBL
$$

......................KEY........................................
  SKY/WX - SKY CONDITIONS/PRESENT WEATHER
  TMP    - TEMPERATURE IN FAHRENHEIT
  DWPT   - DEWPOINT IN FAHRENHEIT
  RH     - RELATIVE HUMIDITY IN PERCENT
  WIND   - DIRECTION AND SPEED /MPH FOR ISLANDS...KTS FOR BUOYS/
  PRES   - MEAN SEA LEVEL PRESSURE IN INCHES OF HG
  VSB    - VISIBILITY IN MILES
  HX     - HEAT INDEX
  WCI    - WIND CHILL INDEX
  VRB    - VARIABLE WIND DIRECTION
  N/A    - NOT AVAILABLE




USA.gov is the U.S. government's official web portal to all federal, state and local government web resources and services.